GFSGL_850_spd_021.txt.gz
Wind_Speed
38 38 36 37 33 35 34 32 28 26 25 20 22 19 17 15 8 7 8 12 11 12 12 10 9 10 8 8 11 12 12 13 18 18 15 16 18 20 21 21 23 21 20
38 39 40 39 38 36 36 34 33 31 29 27 26 24 23 22 20 19 17 12 13 14 14 13 11 9 11 12 11 12 14 17 17 22 19 19 19 20 21 24 24 24 26
36 36 38 41 42 42 40 36 36 35 35 32 31 30 32 27 18 13 16 20 17 18 18 14 12 12 13 13 16 16 15 16 18 19 22 23 23 21 23 22 22 21 22
34 35 37 40 41 40 40 40 39 40 40 39 37 35 33 31 23 23 15 20 19 19 18 15 14 14 15 15 17 17 16 18 18 19 22 22 24 25 27 21 23 22 21
38 37 38 38 37 36 36 38 39 44 42 43 41 38 38 35 27 24 16 21 20 18 20 16 15 17 20 18 20 19 20 20 20 22 23 24 27 24 24 24 21 21 24
36 38 35 35 35 35 38 37 39 38 41 45 43 41 42 38 29 20 16 19 19 19 19 20 17 22 23 22 23 21 20 24 27 24 23 24 29 26 23 22 21 24 27
36 35 36 35 36 35 34 34 36 36 35 39 43 45 42 38 32 22 18 25 19 21 22 22 21 19 20 22 20 24 21 23 22 23 26 23 24 22 21 24 25 27 28
39 35 35 34 32 32 31 31 34 33 33 33 39 46 44 31 32 26 30 25 25 25 22 24 24 23 21 25 25 22 21 19 21 23 23 23 21 22 27 29 33 32 27
32 35 33 33 34 29 29 29 30 30 29 37 29 40 42 32 28 28 27 26 23 24 24 25 25 26 23 24 21 22 20 18 18 22 23 25 28 28 22 20 20 22 25
32 30 30 30 28 27 25 24 22 23 24 27 25 25 30 30 24 27 25 23 18 19 23 26 23 20 26 24 20 20 17 17 16 18 21 22 24 22 21 21 23 23 25
26 24 24 23 23 21 22 22 21 22 27 26 22 20 20 23 25 26 23 24 19 20 22 23 22 25 26 20 19 20 18 21 22 23 20 18 19 20 18 17 16 21 27
26 26 25 24 19 20 21 19 19 20 25 21 16 16 20 22 21 20 19 20 22 25 25 23 23 28 23 20 21 21 20 21 21 16 17 18 19 18 18 19 24 26 26
26 24 21 19 17 18 20 19 18 20 17 13 13 17 20 20 21 21 21 22 20 16 20 23 21 23 19 19 19 19 17 17 13 15 17 17 17 18 22 22 23 24 26
22 23 20 20 20 18 15 15 14 15 12 11 13 16 17 15 16 20 19 15 14 13 21 18 20 19 19 17 17 15 13 6 12 14 15 14 17 18 19 20 22 23 23
18 18 17 16 17 19 19 17 13 13 12 7 6 8 7 11 14 14 10 11 12 13 12 9 13 10 11 10 11 11 11 11 13 13 14 16 17 17 18 18 19 20 22
18 17 16 18 16 14 15 15 11 7 8 8 8 5 7 10 9 7 10 11 13 14 12 13 14 15 13 12 13 10 11 13 13 13 15 16 17 17 17 18 17 18 20
15 17 13 14 12 12 11 9 9 10 9 11 14 15 15 10 11 11 11 11 13 14 12 11 13 12 10 11 12 13 13 12 15 15 13 15 15 15 16 16 17 18 19
16 17 15 15 14 13 10 9 7 5 6 9 13 13 13 10 10 9 8 8 8 8 9 9 10 10 11 11 12 12 12 12 12 13 13 12 13 14 15 15 16 18 20
14 13 13 12 12 11 8 7 8 7 9 8 9 13 13 12 11 9 8 7 6 7 8 9 9 10 10 10 10 10 11 11 11 12 8 10 12 13 14 15 16 18 20
12 16 12 11 9 8 7 8 8 8 12 12 6 10 17 14 11 9 9 6 6 6 6 6 7 8 8 9 9 10 9 9 8 8 9 10 11 12 13 14 15 17 18
9 11 11 10 8 8 7 7 7 9 11 14 13 20 9 10 9 10 8 8 7 6 6 5 6 7 8 8 8 8 8 7 7 7 8 9 10 11 12 13 14 15 17
11 9 9 8 10 8 8 8 8 9 9 12 12 12 13 9 10 12 11 9 8 8 6 7 6 7 7 8 9 8 7 7 7 7 7 8 9 10 11 12 13 14 16
8 9 7 6 4 7 7 8 8 7 5 7 11 14 14 11 12 11 12 11 9 9 8 7 7 7 8 7 7 7 7 6 6 6 6 7 8 10 11 12 12 13 15
7 6 5 3 5 5 7 7 8 8 10 7 9 9 11 12 13 13 12 10 10 10 9 9 8 8 8 9 7 6 6 8 7 4 7 5 8 10 9 10 12 12 13
2 2 3 3 5 8 9 9 9 9 9 9 12 12 13 12 12 10 10 14 12 12 11 11 10 10 10 9 8 10 15 14 12 10 7 5 6 9 9 9 11 11 11
3 4 6 9 8 9 10 9 12 12 15 11 10 12 14 16 16 15 14 12 13 12 12 11 11 11 10 9 8 14 12 11 10 9 7 2 5 6 7 7 9 9 9

GFSGL_850_spd_024.txt.gz
Wind_Speed
42 39 39 40 38 36 36 34 34 31 29 25 27 27 24 23 22 20 18 15 13 10 8 13 16 14 15 13 11 12 10 9 12 15 16 18 18 20 23 21 23 23 23
45 42 41 41 40 41 40 39 39 36 35 36 35 33 29 27 25 23 19 23 19 14 11 10 12 12 10 10 10 11 12 12 14 20 21 19 18 16 20 23 24 24 25
45 44 43 44 43 43 43 42 42 41 40 39 40 38 34 32 28 27 21 18 19 18 16 13 13 13 14 14 14 15 16 16 16 17 20 20 21 20 22 23 24 26 21
44 44 45 46 46 45 43 43 41 43 42 42 41 40 38 35 32 30 25 19 21 21 20 17 15 16 16 16 15 15 15 16 17 19 21 18 20 19 25 24 23 21 23
45 45 46 46 46 45 44 43 41 41 43 43 40 41 39 37 35 34 30 21 23 23 22 21 17 18 16 17 18 19 20 21 23 25 21 21 26 22 24 29 30 29 29
46 48 43 42 44 44 43 41 40 39 43 43 43 41 41 41 38 36 36 24 23 24 24 22 19 18 20 18 21 19 21 23 25 26 26 28 27 28 28 27 25 24 28
46 47 46 43 44 44 40 38 39 40 40 41 40 38 39 39 38 36 32 24 20 22 24 21 20 20 20 18 21 18 22 25 23 21 23 24 25 23 23 24 26 29 33
47 43 44 45 46 43 38 37 36 39 40 40 38 35 33 36 38 35 27 20 20 23 23 22 19 20 19 23 24 23 25 25 23 22 21 21 22 23 23 27 32 31 26
45 46 43 43 43 41 37 36 34 33 35 36 33 30 30 35 33 36 28 26 26 26 29 24 22 21 25 23 22 24 25 21 21 19 23 24 24 24 26 22 23 24 27
46 48 38 37 37 38 36 33 31 31 28 27 29 29 28 29 31 30 27 27 24 19 23 22 21 22 22 20 21 23 23 20 18 20 22 24 26 26 16 20 24 28 27
37 37 36 37 37 34 31 29 29 27 25 25 25 24 23 22 26 28 25 21 20 19 16 20 19 17 18 19 19 21 20 20 21 22 24 23 15 18 15 15 13 15 17
32 32 33 34 34 35 30 26 23 21 22 21 20 20 18 19 18 23 20 18 17 23 19 18 17 20 19 21 18 21 20 21 22 22 17 13 17 15 17 20 22 25 25
31 31 31 31 28 25 24 24 22 21 18 18 18 17 14 15 19 20 18 18 17 19 19 19 16 18 21 17 18 17 19 19 18 10 14 16 18 19 21 21 20 21 22
31 32 32 29 27 22 19 20 19 19 17 13 11 13 15 14 16 16 12 15 17 18 13 12 14 16 15 17 17 9 12 9 8 12 16 14 13 18 18 18 20 23 25
30 29 27 24 22 22 19 15 15 15 14 11 11 13 11 13 13 7 9 10 10 10 9 10 9 10 12 12 11 12 10 9 10 10 15 16 18 16 18 18 20 19 21
27 24 21 23 19 17 20 18 16 14 14 13 11 10 10 9 7 5 6 7 8 8 7 9 10 12 16 15 10 9 10 12 11 13 14 17 17 17 17 17 18 19 22
19 19 17 18 16 17 19 16 17 15 13 12 12 10 7 4 8 7 6 6 7 8 11 15 12 12 9 11 14 8 8 7 12 14 14 13 15 14 15 16 17 19 20
15 14 20 16 19 14 11 12 10 13 11 13 11 10 8 7 7 8 7 6 7 8 6 9 9 8 11 14 13 12 9 10 10 11 13 14 10 13 14 16 17 19 21
21 17 15 17 19 18 13 12 15 12 15 5 9 9 9 9 9 9 8 8 6 6 6 5 5 8 9 8 8 9 11 13 13 12 10 5 10 11 14 15 17 18 20
17 18 17 14 15 15 12 11 10 18 18 9 7 7 10 12 11 8 9 8 6 3 6 5 6 9 9 10 11 11 11 8 6 7 8 9 10 11 12 15 16 18 19
9 16 15 18 15 12 10 10 11 14 13 11 11 8 5 6 8 8 5 2 7 5 7 6 7 7 7 9 9 7 5 6 6 7 7 8 9 10 12 13 14 16 17
8 11 16 12 16 15 11 9 8 9 16 16 18 11 10 9 9 13 13 9 11 10 9 6 7 6 6 7 8 8 7 6 6 8 7 6 7 8 12 9 14 15 15
6 15 10 13 17 17 12 9 6 5 5 6 10 14 18 15 9 9 13 14 13 11 10 8 7 8 8 10 10 8 7 6 8 9 8 6 4 8 10 11 13 12 14
10 12 9 10 10 9 9 11 7 5 1 6 8 10 10 9 9 10 11 13 15 15 14 15 13 8 8 11 12 7 6 10 13 12 9 6 1 8 6 10 12 8 14
4 5 6 3 7 9 7 6 7 8 10 7 9 9 9 12 15 15 13 13 14 16 17 12 13 10 12 14 9 11 13 15 16 15 12 9 2 4 10 6 11 8 12
3 3 5 8 6 5 6 8 6 9 12 11 12 14 13 12 12 15 16 18 17 13 15 11 13 12 12 11 11 13 14 13 12 10 9 6 2 4 10 3 8 9 9

GFSGL_850_spd_030.txt.gz
Wind_Speed
50 46 41 36 36 38 41 38 38 35 31 31 29 27 25 24 23 22 20 20 19 16 16 15 16 18 22 24 21 18 18 18 14 15 14 14 13 14 16 19 21 20 19
51 47 44 39 37 38 41 43 41 41 39 35 32 31 28 27 28 26 23 24 25 21 18 17 17 18 19 20 22 21 21 21 20 19 19 20 20 19 19 19 19 21 20
54 50 46 44 41 39 41 42 45 43 43 43 38 36 35 32 30 29 27 25 26 25 20 19 18 19 20 19 19 21 22 22 20 19 19 19 20 18 20 22 22 22 23
56 53 49 47 43 41 41 43 44 44 46 44 46 43 39 36 34 33 31 27 26 27 27 22 22 22 22 22 21 21 20 19 17 17 18 19 19 18 20 21 22 23 26
58 55 53 48 43 43 44 44 44 45 45 45 46 45 42 40 38 36 34 31 29 29 30 28 24 24 22 22 22 21 21 20 20 19 20 21 23 23 21 22 23 25 27
60 57 52 50 49 48 47 45 44 44 44 45 45 46 44 41 40 38 34 33 31 30 31 32 26 25 24 23 24 21 23 23 23 22 20 22 24 24 20 18 20 23 23
60 58 56 52 52 51 48 47 46 45 43 43 42 41 40 40 39 37 34 34 32 31 28 32 29 26 26 24 25 28 26 25 23 22 23 26 26 22 19 20 20 22 24
60 59 57 54 52 51 50 48 47 45 43 39 37 35 36 37 36 34 31 30 30 27 27 29 31 25 25 23 25 28 27 26 24 25 25 27 26 19 20 22 23 24 26
58 58 59 56 52 50 50 49 46 43 40 36 32 32 32 31 27 28 28 30 27 25 21 22 26 27 23 22 25 25 22 23 25 24 25 26 20 19 20 21 22 23 24
58 57 57 58 55 50 46 46 45 39 33 30 30 29 26 26 24 24 23 21 24 21 20 21 23 24 24 26 25 23 24 23 21 21 22 20 20 21 23 24 20 21 20
55 52 54 55 58 52 48 45 43 38 32 30 30 28 25 23 22 19 19 17 17 17 20 21 22 25 29 23 21 22 23 23 21 21 17 18 21 22 18 14 11 13 19
50 54 53 54 57 53 50 46 42 40 34 34 29 26 24 21 17 14 16 16 15 17 17 16 19 18 15 16 20 21 22 19 17 14 14 15 15 11 11 14 16 18 20
51 51 51 50 49 49 49 48 44 38 37 32 28 23 24 19 15 14 13 14 14 16 17 16 15 15 15 14 16 17 15 12 10 10 9 7 10 10 12 16 19 22 20
51 50 48 48 44 45 46 45 43 39 36 31 27 23 19 17 15 15 14 16 14 15 17 17 17 17 15 16 13 11 10 9 9 9 11 10 11 13 16 19 22 19 17
48 48 46 44 43 44 44 44 37 31 39 33 27 23 25 19 14 16 13 13 15 15 19 18 15 16 14 10 9 8 10 11 9 8 10 12 13 15 16 17 14 14 16
45 44 43 46 43 40 40 28 21 18 10 16 18 21 19 17 15 13 11 13 13 15 18 15 14 12 12 9 8 8 9 10 10 10 13 15 13 15 16 13 12 14 16
30 31 31 27 24 27 21 16 3 9 22 19 20 18 14 14 15 15 13 13 13 13 12 11 11 11 9 10 9 9 10 11 13 15 16 15 15 15 16 13 12 16 16
11 16 17 18 25 23 23 35 18 24 25 24 21 16 16 16 16 15 12 14 14 13 11 10 10 11 11 11 11 10 11 14 15 14 14 15 18 14 9 11 15 15 16
20 12 13 20 23 23 25 28 26 20 18 17 17 17 17 15 15 13 14 12 13 12 12 11 10 12 12 10 9 9 10 12 13 14 14 9 8 8 11 13 13 13 14
21 23 22 23 23 22 22 24 22 19 16 16 18 14 14 16 14 14 14 15 15 15 14 15 12 10 9 8 9 11 12 13 13 10 9 9 10 11 13 15 11 13 13
17 20 21 21 21 19 20 20 20 20 19 14 14 14 10 10 14 13 13 14 14 15 13 12 12 10 8 9 12 12 11 9 9 10 9 9 10 14 16 12 11 11 13
10 13 14 15 16 17 18 17 14 13 16 14 17 16 15 15 16 15 14 13 16 17 16 14 11 9 9 10 11 11 13 14 13 13 11 12 14 15 14 12 9 10 12
8 14 19 20 18 17 13 12 15 17 17 17 17 19 18 20 19 17 14 14 16 19 18 17 15 11 11 10 13 12 13 14 14 15 14 13 14 13 11 10 9 9 9
7 4 7 12 15 15 15 10 13 15 17 17 17 17 14 16 19 18 16 15 17 19 18 19 14 13 13 13 11 8 9 11 12 14 16 15 11 10 10 9 9 8 8
11 5 3 7 8 9 12 14 12 11 11 14 15 15 15 17 18 18 17 17 15 21 17 16 17 17 15 8 7 10 11 10 9 10 12 13 13 12 11 9 7 6 7
2 14 12 10 12 13 13 12 9 9 11 12 13 12 12 16 18 21 21 22 19 19 19 15 15 15 12 10 12 11 8 7 8 11 12 12 11 12 12 9 7 7 7

GFSGL_850_spd_033.txt.gz
Wind_Speed
56 52 49 45 43 41 34 35 36 34 32 31 28 26 21 21 21 21 18 18 19 19 16 17 17 16 18 20 19 17 15 15 17 16 16 14 13 12 12 13 16 20 20
58 53 49 45 45 44 38 37 40 38 36 33 30 29 26 25 25 25 22 21 21 22 20 18 18 17 17 17 18 19 18 18 18 18 17 17 18 16 16 18 19 19 21
57 58 53 49 48 47 42 39 41 42 41 38 37 34 31 29 28 27 27 25 23 22 23 23 19 19 18 18 19 19 19 19 20 21 19 16 15 16 18 19 19 18 17
56 57 58 53 47 48 45 42 42 43 44 42 42 40 38 34 32 31 30 28 27 25 23 24 25 23 21 18 18 19 20 18 19 19 20 19 18 18 18 21 24 23 23
55 56 57 55 47 47 47 47 44 44 45 45 45 43 42 40 38 35 33 31 30 29 28 26 27 27 22 22 20 19 20 20 20 20 21 21 22 20 20 22 24 22 22
54 54 56 54 52 50 51 50 48 47 45 46 47 48 47 44 43 40 37 34 32 32 31 30 26 28 28 25 24 22 21 21 21 22 21 23 24 22 23 23 21 20 22
53 54 54 54 52 53 54 53 51 51 48 47 47 48 48 46 44 41 38 35 32 32 31 30 27 24 28 27 23 22 22 23 24 26 23 24 24 23 25 24 19 19 22
53 54 55 55 52 52 55 55 54 53 52 49 49 47 45 42 40 38 35 32 32 31 28 28 26 24 25 28 25 23 22 24 25 24 24 24 26 25 25 22 20 22 24
54 53 54 55 54 55 55 55 57 56 55 52 50 46 39 38 36 32 29 30 30 29 24 23 22 22 24 27 25 22 21 22 21 20 21 24 23 22 19 20 22 24 27
53 54 55 54 57 56 56 55 55 57 56 52 49 42 37 35 28 26 23 28 29 25 20 20 21 21 20 23 23 22 23 21 18 18 21 18 18 17 19 22 24 22 17
46 51 55 56 56 57 56 57 55 54 51 48 44 36 35 31 23 22 23 24 24 18 18 19 20 19 18 19 20 23 23 15 16 18 19 16 15 17 20 16 10 12 15
35 49 55 55 56 55 55 55 55 51 47 44 41 38 31 26 23 21 22 17 15 16 19 18 17 18 19 21 21 16 14 15 16 16 13 10 11 12 11 11 11 14 18
50 51 51 52 55 55 54 51 55 55 52 45 41 38 34 31 27 24 15 15 19 20 21 20 18 20 18 17 14 12 12 13 13 11 8 10 10 8 8 12 15 17 21
45 48 50 52 54 53 53 50 48 42 39 39 41 39 34 32 29 26 28 24 24 24 25 22 20 18 15 15 13 11 11 11 11 9 8 9 12 12 13 15 18 20 20
36 42 47 48 43 41 41 40 43 43 42 40 36 28 21 29 18 19 21 26 26 25 22 23 20 16 17 13 12 11 11 11 11 8 9 10 11 13 16 16 18 20 17
18 24 26 30 32 34 28 19 25 35 33 33 27 29 23 14 14 23 21 20 22 23 24 23 19 16 14 12 12 12 10 9 11 10 11 13 14 16 15 15 17 15 16
10 12 17 21 32 33 33 34 28 23 18 22 22 17 26 30 24 22 20 22 22 22 22 21 18 17 16 15 14 13 9 9 11 12 15 16 15 14 14 16 15 14 18
11 15 7 13 6 30 9 8 14 18 8 24 27 27 28 31 27 27 26 25 24 21 17 18 17 17 17 15 15 12 8 7 8 13 15 13 13 16 16 12 12 16 16
8 6 12 20 29 22 21 16 22 33 40 34 32 27 24 24 27 25 23 21 21 22 20 18 17 16 14 13 11 7 5 6 8 11 12 15 16 13 10 11 13 15 16
6 8 19 25 20 15 19 29 38 37 34 33 29 27 28 28 29 27 24 21 19 18 16 15 15 12 13 9 5 3 6 9 12 14 13 12 11 9 10 12 15 14 14
10 12 15 17 18 22 26 26 26 27 26 25 25 25 23 24 24 24 23 20 16 14 15 17 16 13 10 4 1 4 7 8 8 6 7 8 8 9 11 15 14 13 14
16 17 17 17 18 20 23 25 25 25 25 26 25 23 22 22 22 22 20 18 15 15 14 13 12 8 4 4 7 9 5 6 9 9 8 6 9 11 13 15 12 13 13
13 10 10 12 15 16 17 18 18 19 19 22 25 24 22 22 22 21 19 18 17 16 14 12 10 8 0 3 7 10 6 5 7 8 9 7 10 12 15 13 12 11 11
15 14 7 5 7 7 8 10 12 15 18 18 20 18 17 17 19 19 18 16 15 14 12 9 10 5 5 6 4 3 5 8 7 7 7 8 11 14 13 12 12 11 11
8 6 3 8 4 0 3 5 7 11 13 12 12 14 16 15 19 17 16 17 14 12 12 11 8 9 8 7 3 1 5 9 7 6 6 6 9 12 14 14 12 11 10
4 2 3 2 2 3 3 2 2 3 5 4 7 7 11 13 14 16 16 16 15 14 15 12 9 14 13 9 7 5 6 5 5 3 5 7 10 12 13 13 11 11 9

GFSGL_850_spd_036.txt.gz
Wind_Speed
53 53 53 51 48 44 39 34 33 32 32 34 33 29 27 24 22 24 21 20 21 19 18 16 16 16 17 17 17 16 14 13 13 12 10 9 8 8 10 11 12 14 17
53 52 53 51 50 47 43 37 35 33 34 34 37 35 31 28 25 25 24 23 22 22 21 20 19 18 18 18 17 17 16 15 14 14 13 12 12 11 10 12 14 16 17
53 53 53 53 52 50 45 40 39 36 36 37 37 37 35 33 31 28 27 25 24 22 21 21 22 21 21 20 19 18 16 15 15 16 15 14 13 11 12 12 13 16 17
52 52 52 53 52 49 46 43 40 40 39 40 41 41 39 36 34 32 30 29 27 26 24 23 22 25 24 22 21 19 17 17 17 17 15 15 13 14 16 17 16 17 19
50 50 52 52 50 47 47 45 41 42 42 42 44 45 44 42 40 37 35 32 30 28 27 27 25 24 25 25 23 21 19 19 18 18 18 19 19 16 16 17 20 20 21
45 47 50 51 50 49 49 48 45 44 46 46 46 48 49 47 44 42 38 35 32 31 29 27 29 28 25 25 27 23 23 21 20 20 21 22 22 19 18 18 21 23 23
44 42 46 48 49 49 49 51 51 48 47 49 49 48 50 51 49 44 39 38 37 35 31 28 29 30 26 24 26 27 23 23 23 21 22 21 22 19 19 20 21 20 19
47 47 46 46 45 47 49 52 53 53 51 51 52 51 50 49 48 46 43 41 41 38 33 30 28 28 27 26 25 26 25 21 22 21 21 20 19 20 19 20 21 21 19
50 48 47 45 45 46 49 50 53 57 56 55 54 54 53 51 47 44 42 44 46 41 36 31 27 26 24 23 26 26 24 21 19 18 19 19 17 18 18 17 17 18 22
48 45 45 44 45 46 48 48 50 53 57 57 56 55 54 51 46 42 41 45 44 38 31 28 24 23 22 23 25 25 24 20 19 17 17 15 16 16 15 14 17 18 17
44 44 44 43 44 44 45 48 50 51 52 56 56 55 55 52 49 44 40 42 39 32 29 28 22 19 21 21 21 22 22 18 18 18 16 15 14 12 12 12 11 9 12
38 40 40 40 41 45 47 48 48 47 53 52 53 53 54 50 44 42 41 40 32 30 28 24 23 24 21 19 19 18 19 19 18 17 16 14 10 8 8 6 6 8 12
30 32 33 35 37 39 40 41 43 42 44 43 43 48 50 47 40 36 40 42 35 30 25 23 25 26 22 21 18 17 15 15 17 17 15 12 9 8 8 7 9 11 13
23 26 25 27 29 29 30 31 33 33 34 36 39 42 39 42 39 36 23 20 36 21 18 23 24 21 19 18 16 17 16 15 16 14 14 12 8 8 10 10 12 15 15
13 13 13 18 22 23 24 26 24 27 31 34 40 40 39 40 43 39 30 20 5 14 16 25 23 21 18 17 18 18 17 18 17 17 14 11 8 8 11 11 15 17 16
4 4 6 8 12 16 18 9 17 27 27 34 34 30 21 32 39 38 31 41 38 34 30 28 23 21 17 17 18 17 18 18 17 17 13 11 10 11 14 14 17 18 14
4 1 3 5 9 17 22 21 18 13 10 12 6 19 3 10 28 21 29 34 33 35 32 31 29 23 17 18 19 19 18 17 16 16 14 12 12 13 14 15 18 15 11
5 2 2 5 9 18 25 27 13 4 7 15 19 16 6 9 18 31 31 27 27 30 30 28 23 20 18 22 22 21 18 17 13 12 13 14 13 12 14 16 14 11 9
4 7 7 8 13 18 24 23 21 17 15 11 9 18 15 22 24 31 27 26 31 28 24 21 18 19 23 23 21 19 17 15 13 12 13 13 12 13 14 13 12 8 7
9 6 9 13 16 23 23 20 20 21 23 9 11 25 22 24 28 28 23 20 20 20 20 21 22 23 22 20 18 16 15 14 13 13 13 13 12 12 13 12 11 6 5
12 10 8 5 5 8 5 7 14 20 11 20 28 25 23 22 22 21 20 20 19 18 20 21 20 18 18 17 15 12 11 12 13 14 13 11 12 15 14 12 9 5 4
20 17 14 10 8 9 7 8 9 12 17 20 19 21 19 18 19 20 20 18 16 15 15 16 17 17 17 13 7 4 6 10 12 12 12 12 14 15 15 11 8 3 4
16 16 16 14 11 13 14 13 13 13 15 17 19 20 18 17 17 18 18 18 17 16 15 14 17 18 14 8 4 1 1 3 8 11 13 13 14 16 13 10 6 3 3
10 11 14 12 11 11 12 11 11 11 12 16 18 19 18 19 20 21 20 19 17 16 16 17 17 17 12 6 7 4 2 1 5 11 14 14 15 14 12 9 5 3 3
7 10 10 9 9 8 8 9 6 8 11 15 17 14 14 18 21 22 22 20 18 18 17 16 16 16 15 10 9 7 4 1 3 8 11 12 11 10 10 8 6 3 4
9 8 6 4 6 6 4 5 4 4 10 14 19 18 20 20 21 24 24 21 20 18 17 19 17 17 17 14 11 10 6 3 1 5 7 6 7 8 10 8 6 4 4